This is the latest recevied weather packets stored in our database for station/object DL5DI-H. If no packets are shown the sender has not sent any weather packets the latest 10 day(s).
| Time | Temp. | Humidity | Pressure | Rain* | Wind** | Luminosity | Snow |
|---|---|---|---|---|---|---|---|
| 1777740001 | 27.78° C | 43% | 1015.7 hPa | 0 mm | - | - | - |
| 1777739405 | 27.22° C | 44% | 1015.8 hPa | 0 mm | - | - | - |
| 1777738801 | 26.11° C | 47% | 1016 hPa | 0 mm | - | - | - |
| 1777738204 | 26.11° C | 47% | 1016 hPa | 0 mm | - | - | - |
| 1777737601 | 26.11° C | 45% | 1016.1 hPa | 0 mm | - | - | - |
| 1777737005 | 27.22° C | 44% | 1016.3 hPa | 0 mm | - | - | - |
| 1777736405 | 27.22° C | 44% | 1016.3 hPa | 0 mm | - | - | - |
| 1777735805 | 27.78° C | 39% | 1017.1 hPa | 0 mm | - | - | - |
| 1777735201 | 27.78° C | 39% | 1017.1 hPa | 0 mm | - | - | - |
| 1777734605 | 27.78° C | 39% | 1017.1 hPa | 0 mm | - | - | - |
| 1777734001 | 27.78° C | 39% | 1017.1 hPa | 0 mm | - | - | - |
| 1777733401 | 27.78° C | 39% | 1017.1 hPa | 0 mm | - | - | - |
| 1777732805 | 27.78° C | 39% | 1017.1 hPa | 0 mm | - | - | - |
| 1777732205 | 27.22° C | 38% | 1017.3 hPa | 0 mm | - | - | - |
| 1777731604 | 27.78° C | 38% | 1017.4 hPa | 0 mm | - | - | - |
| 1777731001 | 28.33° C | 37% | 1017.5 hPa | 0 mm | - | - | - |
| 1777730404 | 28.33° C | 37% | 1017.6 hPa | 0 mm | - | - | - |
| 1777729801 | 28.33° C | 38% | 1017.8 hPa | 0 mm | - | - | - |
| 1777729205 | 27.78° C | 38% | 1017.9 hPa | 0 mm | - | - | - |
| 1777728604 | 27.78° C | 39% | 1018.1 hPa | 0 mm | - | - | - |
| 1777728005 | 27.22° C | 39% | 1018.1 hPa | 0 mm | - | - | - |
| 1777727404 | 26.67° C | 39% | 1018.3 hPa | 0 mm | - | - | - |
| 1777726805 | 26.67° C | 40% | 1018.4 hPa | 0 mm | - | - | - |
| 1777726205 | 26.67° C | 40% | 1018.6 hPa | 0 mm | - | - | - |
| 1777725601 | 26.67° C | 40% | 1018.7 hPa | 0 mm | - | - | - |
* Rain latest hour (hover to see other rain measurements)
** Current wind speed in m/s (hover to see current wind gust speed)